TimeEST,TemperatureF,Dew PointF,Humidity,Sea Level PressureIn,VisibilityMPH,Wind Direction,Wind SpeedMPH,Gust SpeedMPH,PrecipitationIn,Events,Conditions,WindDirDegrees,DateUTC
12:31 AM,37.9,30.9,76,29.80,10.0,West,12.7,21.9,0.00,,Overcast,280,2014-01-15 05:31:00
12:48 AM,35.6,30.2,81,29.82,8.0,WNW,10.4,-,0.00,Rain,Light Rain,290,2014-01-15 05:48:00
12:53 AM,36.0,30.9,82,29.82,8.0,WNW,9.2,-,0.00,Rain,Light Rain,300,2014-01-15 05:53:00
1:13 AM,35.1,28.0,76,29.82,8.0,Variable,6.9,-,0.00,,Overcast,0,2014-01-15 06:13:00
1:29 AM,34.0,26.1,73,29.84,10.0,West,11.5,19.6,0.00,,Overcast,270,2014-01-15 06:29:00
1:53 AM,34.0,24.1,67,29.86,10.0,West,11.5,17.3,0.00,,Overcast,270,2014-01-15 06:53:00
2:02 AM,34.0,24.1,67,29.84,10.0,Variable,6.9,17.3,N/A,,Overcast,0,2014-01-15 07:02:00
2:53 AM,33.1,23.0,66,29.88,10.0,WSW,9.2,-,N/A,,Overcast,250,2014-01-15 07:53:00
3:29 AM,33.1,21.9,64,29.86,10.0,West,5.8,-,N/A,,Overcast,260,2014-01-15 08:29:00
3:53 AM,33.1,23.0,66,29.89,10.0,West,3.5,-,N/A,,Overcast,270,2014-01-15 08:53:00
4:07 AM,33.1,23.0,66,29.87,10.0,WSW,10.4,-,N/A,,Overcast,240,2014-01-15 09:07:00
4:53 AM,32.0,21.9,66,29.90,10.0,WSW,6.9,-,N/A,,Mostly Cloudy,240,2014-01-15 09:53:00
5:53 AM,30.0,19.0,64,29.93,10.0,West,5.8,-,N/A,,Mostly Cloudy,260,2014-01-15 10:53:00
6:22 AM,30.0,18.0,61,29.91,10.0,West,10.4,-,N/A,,Overcast,260,2014-01-15 11:22:00
6:30 AM,30.0,18.0,61,29.92,10.0,West,8.1,-,N/A,,Overcast,270,2014-01-15 11:30:00
6:53 AM,30.0,18.0,61,29.95,10.0,WSW,6.9,-,N/A,,Overcast,250,2014-01-15 11:53:00
7:53 AM,28.9,16.0,58,29.98,10.0,SW,6.9,-,N/A,,Overcast,230,2014-01-15 12:53:00
8:53 AM,28.9,16.0,58,30.01,10.0,SW,5.8,-,N/A,,Overcast,230,2014-01-15 13:53:00
9:53 AM,28.9,16.0,58,30.03,10.0,SW,10.4,16.1,N/A,,Overcast,230,2014-01-15 14:53:00
10:53 AM,28.9,16.0,58,30.02,10.0,SW,6.9,-,N/A,,Overcast,220,2014-01-15 15:53:00
11:53 AM,30.0,19.0,64,30.01,10.0,West,6.9,-,N/A,,Overcast,280,2014-01-15 16:53:00
12:16 PM,28.0,21.0,75,29.99,1.5,WNW,11.5,-,0.00,Snow,Light Snow,300,2014-01-15 17:16:00
12:25 PM,27.0,21.0,78,29.99,0.8,WNW,9.2,-,0.00,Snow,Light Snow,290,2014-01-15 17:25:00
12:32 PM,27.0,21.0,78,29.98,1.0,West,5.8,-,0.00,Snow,Light Snow,280,2014-01-15 17:32:00
12:36 PM,28.0,21.0,75,29.98,2.0,West,6.9,-,0.00,Snow,Light Snow,280,2014-01-15 17:36:00
12:44 PM,28.0,21.0,75,29.98,6.0,West,5.8,-,0.00,Snow,Light Snow,260,2014-01-15 17:44:00
12:53 PM,28.0,19.9,72,30.01,2.5,West,8.1,-,0.00,Snow,Light Snow,270,2014-01-15 17:53:00
1:02 PM,28.0,19.9,72,29.97,1.8,West,6.9,-,0.00,Snow,Light Snow,280,2014-01-15 18:02:00
1:10 PM,28.0,21.0,75,29.97,2.0,West,8.1,-,0.00,Snow,Light Snow,260,2014-01-15 18:10:00
1:20 PM,27.0,21.0,78,29.98,1.0,WNW,12.7,20.7,0.00,Snow,Light Snow,290,2014-01-15 18:20:00
1:28 PM,27.0,21.0,78,29.98,0.8,WNW,9.2,-,0.00,Snow,Light Snow,290,2014-01-15 18:28:00
1:33 PM,27.0,21.0,78,29.98,1.2,West,6.9,-,0.00,Snow,Light Snow,280,2014-01-15 18:33:00
1:39 PM,27.0,21.0,78,29.98,2.0,West,6.9,-,0.00,Snow,Light Snow,270,2014-01-15 18:39:00
1:48 PM,26.6,21.2,80,29.98,3.0,Variable,3.5,-,0.00,Snow,Light Snow,0,2014-01-15 18:48:00
1:53 PM,27.0,19.9,75,30.01,5.0,West,5.8,-,0.00,Snow,Light Snow,260,2014-01-15 18:53:00
2:53 PM,28.0,18.0,66,30.01,9.0,WNW,8.1,-,0.00,,Overcast,290,2014-01-15 19:53:00
3:53 PM,28.0,12.9,53,30.03,10.0,WSW,11.5,18.4,0.00,,Overcast,240,2014-01-15 20:53:00
4:53 PM,28.0,12.9,53,30.04,10.0,West,9.2,-,N/A,,Overcast,260,2014-01-15 21:53:00
5:53 PM,27.0,12.9,56,30.05,10.0,West,8.1,-,N/A,,Overcast,260,2014-01-15 22:53:00
6:53 PM,27.0,12.9,56,30.07,10.0,WNW,8.1,-,N/A,,Overcast,290,2014-01-15 23:53:00
7:53 PM,27.0,12.0,53,30.08,10.0,West,6.9,-,N/A,,Overcast,270,2014-01-16 00:53:00
8:53 PM,26.1,12.0,55,30.07,10.0,WSW,3.5,-,N/A,,Overcast,250,2014-01-16 01:53:00
9:53 PM,26.1,12.0,55,30.07,10.0,WSW,4.6,-,N/A,,Overcast,240,2014-01-16 02:53:00
10:53 PM,25.0,10.9,55,30.06,10.0,West,4.6,-,N/A,,Mostly Cloudy,260,2014-01-16 03:53:00
11:53 PM,24.1,10.9,57,30.05,10.0,SW,4.6,-,N/A,,Clear,220,2014-01-16 04:53:00